Location: Bellerive
(46.9237°N, 7.0223°E)
Time: 00:48:52
(UTC+00:00)

ATLAS 2AS CENTAUR R/B - Pass Details

Date: 09 April 2020
Orbit: 933 x 1279 km, 63.7° (Epoch: 30 May)

Event Time Altitude Azimuth Distance (km) Brightness Sun altitude
Rises 19:56:55 0° 317° (NW) 4,154 7.3 -17.2°
Reaches altitude 10° 19:59:59 10° 310° (NW) 3,141 6.4 -17.6°
Maximum altitude 20:06:40 37° 247° (WSW) 1,705 4.0 -18.5°
Drops below altitude 10° 20:12:52 10° 183° (S) 2,898 4.7 -19.4°
Enters shadow 20:13:04 - 182° (S) 2,961 4.7 -19.4°
